EJA241 KOKC-KAUS

Flight info

Callsign EJA241
Flight time 0h 52m
Altitude 41000
Route MUDDE3 MOOSE BROBB/N0456F400 WINDU SEWZY6
Aircraft CL60/M-SBDE1E2E3FGHIJ1J4J5J7M3RWXYZ/LB1V1D1

Departure

Time 2026-04-09 09:15
Airport OKC Will Rogers World Airport (KOKC)

Arrival

Time 2026-04-09 10:07
Airport Austin Bergstrom International Airport (KAUS)
Time Latitude Longitude Altitude Speed Heading
2026-04-09 08:51 35.39646 -97.58539 1284 ft 0 kts 180°
2026-04-09 09:12 35.39641 -97.58540 1284 ft 2 kts 191°
2026-04-09 09:12 35.39640 -97.58566 1285 ft 5 kts 301°
2026-04-09 09:12 35.39671 -97.58611 1284 ft 8 kts 349°
2026-04-09 09:13 35.39718 -97.58633 1284 ft 8 kts 272°
2026-04-09 09:13 35.39717 -97.58717 1284 ft 9 kts 270°
2026-04-09 09:13 35.39717 -97.58793 1285 ft 5 kts 269°
2026-04-09 09:13 35.39723 -97.58849 1286 ft 7 kts 294°
2026-04-09 09:14 35.39731 -97.58894 1287 ft 4 kts 191°
2026-04-09 09:14 35.39703 -97.58894 1288 ft 22 kts 180°
2026-04-09 09:14 35.39143 -97.58894 1294 ft 131 kts 179°
2026-04-09 09:14 35.38036 -97.58901 1803 ft 175 kts 180°
2026-04-09 09:15 35.36857 -97.58873 2719 ft 165 kts 179°
2026-04-09 09:15 35.35746 -97.58813 3112 ft 155 kts 179°
2026-04-09 09:15 35.34530 -97.58741 3464 ft 197 kts 179°
2026-04-09 09:15 35.33038 -97.58660 4241 ft 229 kts 178°
2026-04-09 09:16 35.31408 -97.58566 5202 ft 244 kts 178°
2026-04-09 09:16 35.29709 -97.58482 6239 ft 255 kts 178°
2026-04-09 09:16 35.27919 -97.58336 7306 ft 265 kts 176°
2026-04-09 09:16 35.26086 -97.58171 8385 ft 273 kts 176°
2026-04-09 09:17 35.24180 -97.58000 9496 ft 281 kts 176°
2026-04-09 09:17 35.22224 -97.57825 10615 ft 290 kts 176°
2026-04-09 09:17 35.20087 -97.57635 11392 ft 318 kts 176°
2026-04-09 09:17 35.17852 -97.57436 12334 ft 336 kts 176°
2026-04-09 09:18 35.15484 -97.57224 13439 ft 347 kts 175°
2026-04-09 09:18 35.13067 -97.57009 14548 ft 355 kts 176°
2026-04-09 09:18 35.10607 -97.56789 15610 ft 362 kts 176°
2026-04-09 09:18 35.08059 -97.56563 16551 ft 370 kts 176°
2026-04-09 09:19 35.05470 -97.56333 17583 ft 377 kts 176°
2026-04-09 09:19 35.02835 -97.56099 18530 ft 384 kts 176°
2026-04-09 09:19 35.00178 -97.55808 19425 ft 388 kts 174°
2026-04-09 09:19 34.97498 -97.55427 20401 ft 392 kts 174°
2026-04-09 09:20 34.94774 -97.55039 21263 ft 397 kts 174°
2026-04-09 09:20 34.92058 -97.54653 22144 ft 401 kts 174°
2026-04-09 09:20 34.89278 -97.54258 23008 ft 405 kts 174°
2026-04-09 09:20 34.86446 -97.53856 23833 ft 410 kts 175°
2026-04-09 09:21 34.83610 -97.53453 24562 ft 416 kts 175°
2026-04-09 09:21 34.80727 -97.53044 25266 ft 422 kts 175°
2026-04-09 09:21 34.77775 -97.52625 25973 ft 427 kts 175°
2026-04-09 09:21 34.74788 -97.52202 26674 ft 431 kts 175°
2026-04-09 09:22 34.71754 -97.51771 27345 ft 435 kts 175°
2026-04-09 09:22 34.68682 -97.51337 28005 ft 438 kts 175°
2026-04-09 09:22 34.65632 -97.50905 28587 ft 442 kts 176°
2026-04-09 09:22 34.62539 -97.50468 29149 ft 446 kts 176°
2026-04-09 09:23 34.59425 -97.50028 29635 ft 451 kts 176°
2026-04-09 09:23 34.56316 -97.49588 30126 ft 455 kts 176°
2026-04-09 09:23 34.53141 -97.49140 30662 ft 458 kts 176°
2026-04-09 09:23 34.49966 -97.48692 31211 ft 459 kts 176°
2026-04-09 09:24 34.46800 -97.48244 31856 ft 457 kts 176°
2026-04-09 09:24 34.43646 -97.47798 32517 ft 455 kts 176°
2026-04-09 09:24 34.40511 -97.47356 33157 ft 452 kts 177°
2026-04-09 09:24 34.37413 -97.46919 33761 ft 450 kts 177°
2026-04-09 09:25 34.34316 -97.46483 34380 ft 447 kts 177°
2026-04-09 09:25 34.31233 -97.45991 34986 ft 446 kts 173°
2026-04-09 09:25 34.28218 -97.45159 35596 ft 446 kts 170°
2026-04-09 09:25 34.25231 -97.44262 36159 ft 444 kts 170°
2026-04-09 09:26 34.22210 -97.43362 36660 ft 443 kts 170°
2026-04-09 09:26 34.19243 -97.42478 37137 ft 441 kts 170°
2026-04-09 09:26 34.16280 -97.41598 37593 ft 441 kts 170°
2026-04-09 09:26 34.13305 -97.40715 37978 ft 440 kts 171°
2026-04-09 09:27 34.10348 -97.39838 38382 ft 440 kts 171°
2026-04-09 09:27 34.07349 -97.38950 38789 ft 439 kts 171°
2026-04-09 09:27 34.04396 -97.38076 39198 ft 437 kts 171°
2026-04-09 09:27 34.01447 -97.37206 39480 ft 438 kts 171°
2026-04-09 09:28 33.98471 -97.36327 39838 ft 436 kts 171°
2026-04-09 09:28 33.95548 -97.35464 40090 ft 436 kts 171°
2026-04-09 09:28 33.92575 -97.34589 40249 ft 437 kts 172°
2026-04-09 09:28 33.89624 -97.33720 40415 ft 438 kts 172°
2026-04-09 09:29 33.86659 -97.32848 40574 ft 439 kts 172°
2026-04-09 09:29 33.83651 -97.31965 40721 ft 440 kts 172°
2026-04-09 09:29 33.80618 -97.31074 40867 ft 441 kts 172°
2026-04-09 09:29 33.77655 -97.30205 41042 ft 442 kts 172°
2026-04-09 09:30 33.74673 -97.29330 41185 ft 443 kts 172°
2026-04-09 09:30 33.68580 -97.27549 41174 ft 451 kts 172°
2026-04-09 09:31 33.62407 -97.25745 41170 ft 458 kts 172°
2026-04-09 09:31 33.56160 -97.23923 41169 ft 464 kts 172°
2026-04-09 09:32 33.49828 -97.22077 41170 ft 469 kts 172°
2026-04-09 09:32 33.43481 -97.20229 41150 ft 471 kts 172°
2026-04-09 09:33 33.37053 -97.18359 41133 ft 471 kts 172°
2026-04-09 09:33 33.30627 -97.16492 41166 ft 470 kts 172°
2026-04-09 09:34 33.24275 -97.14651 41156 ft 470 kts 172°
2026-04-09 09:34 33.14745 -97.11895 41164 ft 470 kts 172°
2026-04-09 09:35 33.08334 -97.10044 41151 ft 471 kts 172°
2026-04-09 09:35 33.01963 -97.08208 41147 ft 471 kts 172°
2026-04-09 09:36 32.95599 -97.06376 41157 ft 471 kts 172°
2026-04-09 09:36 32.89214 -97.04541 41152 ft 470 kts 172°
2026-04-09 09:37 32.82848 -97.02715 41160 ft 470 kts 172°
2026-04-09 09:37 32.76501 -97.00896 41161 ft 471 kts 172°
2026-04-09 09:38 32.70119 -96.99070 41166 ft 471 kts 172°
2026-04-09 09:38 32.63735 -96.97246 41164 ft 470 kts 172°
2026-04-09 09:39 32.57337 -96.95420 41176 ft 470 kts 172°
2026-04-09 09:39 32.50985 -96.93611 41181 ft 470 kts 172°
2026-04-09 09:40 32.44580 -96.91789 41174 ft 469 kts 172°
2026-04-09 09:40 32.38141 -96.90682 41174 ft 458 kts 185°
2026-04-09 09:41 32.31853 -96.91391 41167 ft 448 kts 197°
2026-04-09 09:41 32.25720 -96.92720 41179 ft 448 kts 197°
2026-04-09 09:42 32.19535 -96.94055 40777 ft 450 kts 197°
2026-04-09 09:42 32.16466 -96.94715 40197 ft 447 kts 197°
2026-04-09 09:42 32.13393 -96.95374 39581 ft 444 kts 197°
2026-04-09 09:43 32.10393 -96.96018 39026 ft 438 kts 196°
2026-04-09 09:43 32.07375 -96.96664 38431 ft 434 kts 196°
2026-04-09 09:43 32.04429 -96.97295 37878 ft 429 kts 196°
2026-04-09 09:43 32.01488 -96.97924 37281 ft 425 kts 196°
2026-04-09 09:44 31.98612 -96.98541 36750 ft 423 kts 196°
2026-04-09 09:44 31.95690 -96.99170 36153 ft 428 kts 195°
2026-04-09 09:44 31.92752 -96.99800 35581 ft 430 kts 195°
2026-04-09 09:44 31.89786 -97.00436 35001 ft 433 kts 195°
2026-04-09 09:45 31.86832 -97.01069 34426 ft 435 kts 195°
2026-04-09 09:45 31.83783 -97.01721 33828 ft 439 kts 195°
2026-04-09 09:45 31.80785 -97.02362 33263 ft 442 kts 194°
2026-04-09 09:45 31.77770 -97.03006 32672 ft 442 kts 194°
2026-04-09 09:46 31.74723 -97.03655 32082 ft 444 kts 194°
2026-04-09 09:46 31.71697 -97.04300 31497 ft 445 kts 194°
2026-04-09 09:46 31.68649 -97.04948 30899 ft 445 kts 194°
2026-04-09 09:46 31.65588 -97.05599 30316 ft 443 kts 194°
2026-04-09 09:47 31.62582 -97.06237 29731 ft 439 kts 194°
2026-04-09 09:47 31.59578 -97.06874 29143 ft 436 kts 193°
2026-04-09 09:47 31.56585 -97.07509 28566 ft 432 kts 193°
2026-04-09 09:47 31.53660 -97.08135 27993 ft 428 kts 194°
2026-04-09 09:48 31.50831 -97.09079 27429 ft 420 kts 202°
2026-04-09 09:48 31.48081 -97.10170 26891 ft 417 kts 201°
2026-04-09 09:48 31.45352 -97.11244 26365 ft 413 kts 202°
2026-04-09 09:48 31.42645 -97.12308 25802 ft 411 kts 201°
2026-04-09 09:49 31.39930 -97.13374 25251 ft 407 kts 201°
2026-04-09 09:49 31.37256 -97.14423 24712 ft 405 kts 201°
2026-04-09 09:49 31.34581 -97.15471 24130 ft 402 kts 201°
2026-04-09 09:49 31.31964 -97.16496 23629 ft 398 kts 201°
2026-04-09 09:50 31.29344 -97.17520 23090 ft 396 kts 201°
2026-04-09 09:50 31.26764 -97.18529 22591 ft 393 kts 201°
2026-04-09 09:50 31.24156 -97.19548 22047 ft 390 kts 200°
2026-04-09 09:50 31.21615 -97.20541 21529 ft 387 kts 200°
2026-04-09 09:51 31.19063 -97.21537 21088 ft 384 kts 200°
2026-04-09 09:51 31.16519 -97.22530 20546 ft 382 kts 200°
2026-04-09 09:51 31.14045 -97.23494 20053 ft 376 kts 200°
2026-04-09 09:51 31.11585 -97.24453 19564 ft 370 kts 200°
2026-04-09 09:52 31.09148 -97.25401 19069 ft 365 kts 200°
2026-04-09 09:52 31.06774 -97.26325 18614 ft 358 kts 200°
2026-04-09 09:52 31.04432 -97.27236 18116 ft 354 kts 199°
2026-04-09 09:52 31.02088 -97.28148 17594 ft 350 kts 199°
2026-04-09 09:53 30.99815 -97.29031 17183 ft 343 kts 199°
2026-04-09 09:53 30.97582 -97.29897 16741 ft 338 kts 200°
2026-04-09 09:53 30.95358 -97.30761 16234 ft 337 kts 199°
2026-04-09 09:53 30.93142 -97.31620 15814 ft 331 kts 199°
2026-04-09 09:54 30.90976 -97.32465 15372 ft 327 kts 199°
2026-04-09 09:54 30.88824 -97.33308 14947 ft 323 kts 199°
2026-04-09 09:54 30.86706 -97.34139 14516 ft 319 kts 199°
2026-04-09 09:54 30.84622 -97.34954 14095 ft 316 kts 199°
2026-04-09 09:55 30.82551 -97.35764 13681 ft 312 kts 199°
2026-04-09 09:55 30.80523 -97.36661 13271 ft 308 kts 206°
2026-04-09 09:55 30.78595 -97.37762 12856 ft 305 kts 207°
2026-04-09 09:55 30.76713 -97.38844 12460 ft 302 kts 207°
2026-04-09 09:56 30.74824 -97.39926 12052 ft 299 kts 207°
2026-04-09 09:56 30.72974 -97.40986 11645 ft 297 kts 207°
2026-04-09 09:56 30.71112 -97.42052 11327 ft 296 kts 207°
2026-04-09 09:56 30.69272 -97.43104 10839 ft 299 kts 207°
2026-04-09 09:57 30.67411 -97.44167 10478 ft 294 kts 207°
2026-04-09 09:57 30.65584 -97.45209 10114 ft 288 kts 207°
2026-04-09 09:57 30.63793 -97.46230 9758 ft 288 kts 207°
2026-04-09 09:57 30.61994 -97.47257 9355 ft 288 kts 206°
2026-04-09 09:58 30.60210 -97.48273 9002 ft 285 kts 206°
2026-04-09 09:58 30.58441 -97.49280 8616 ft 282 kts 206°
2026-04-09 09:58 30.56693 -97.50275 8246 ft 278 kts 206°
2026-04-09 09:58 30.54948 -97.51267 7864 ft 274 kts 205°
2026-04-09 09:59 30.53253 -97.52231 7508 ft 270 kts 205°
2026-04-09 09:59 30.51578 -97.53182 7139 ft 266 kts 205°
2026-04-09 09:59 30.49978 -97.54191 6798 ft 262 kts 212°
2026-04-09 09:59 30.48464 -97.55361 6490 ft 256 kts 213°
2026-04-09 10:00 30.47041 -97.56493 6467 ft 239 kts 213°
2026-04-09 10:00 30.45700 -97.57566 6285 ft 232 kts 213°
2026-04-09 10:00 30.44378 -97.58630 5999 ft 229 kts 213°
2026-04-09 10:00 30.43072 -97.59690 5698 ft 227 kts 213°
2026-04-09 10:01 30.41795 -97.60729 5395 ft 225 kts 213°
2026-04-09 10:01 30.40529 -97.61771 5097 ft 223 kts 213°
2026-04-09 10:01 30.39276 -97.62816 4670 ft 219 kts 213°
2026-04-09 10:01 30.38066 -97.63840 4309 ft 210 kts 213°
2026-04-09 10:02 30.36918 -97.64835 3971 ft 202 kts 213°
2026-04-09 10:02 30.35818 -97.65802 3578 ft 198 kts 212°
2026-04-09 10:02 30.34736 -97.66771 3223 ft 192 kts 213°
2026-04-09 10:02 30.33646 -97.67524 3015 ft 174 kts 188°
2026-04-09 10:03 30.32467 -97.67392 2994 ft 172 kts 162°
2026-04-09 10:03 30.31305 -97.66975 2838 ft 170 kts 159°
2026-04-09 10:03 30.30212 -97.66537 2572 ft 163 kts 159°
2026-04-09 10:03 30.29197 -97.66145 2370 ft 147 kts 163°
2026-04-09 10:04 30.28214 -97.65989 2100 ft 136 kts 174°
2026-04-09 10:04 30.27320 -97.65967 1926 ft 122 kts 176°
2026-04-09 10:04 30.26485 -97.65952 1754 ft 117 kts 175°
2026-04-09 10:04 30.25681 -97.65932 1603 ft 114 kts 175°
2026-04-09 10:05 30.24878 -97.65910 1450 ft 114 kts 176°
2026-04-09 10:05 30.24090 -97.65887 1311 ft 114 kts 176°
2026-04-09 10:05 30.23280 -97.65866 1155 ft 115 kts 177°
2026-04-09 10:05 30.22477 -97.65845 1007 ft 117 kts 177°
2026-04-09 10:06 30.21653 -97.65816 843 ft 118 kts 178°
2026-04-09 10:06 30.20823 -97.65799 693 ft 119 kts 177°
2026-04-09 10:06 30.19992 -97.65781 550 ft 115 kts 177°
2026-04-09 10:06 30.19350 -97.65763 549 ft 67 kts 178°
2026-04-09 10:07 30.19020 -97.65762 549 ft 35 kts 182°
2026-04-09 10:07 30.18886 -97.65795 549 ft 18 kts 203°
2026-04-09 10:07 30.18815 -97.65849 549 ft 8 kts 243°
2026-04-09 10:07 30.18809 -97.65931 549 ft 12 kts 262°
2026-04-09 10:08 30.18752 -97.65958 549 ft 11 kts 177°
2026-04-09 10:08 30.18657 -97.65956 549 ft 15 kts 178°
2026-04-09 10:08 30.18557 -97.65953 549 ft 9 kts 180°
2026-04-09 10:08 30.18515 -97.65995 549 ft 11 kts 264°
2026-04-09 10:09 30.18514 -97.66087 549 ft 12 kts 267°
2026-04-09 10:09 30.18494 -97.66157 549 ft 8 kts 202°
2026-04-09 10:09 30.18447 -97.66164 549 ft 2 kts 239°
2026-04-09 10:09 30.18447 -97.66177 549 ft 0 kts 273°